Volver al catálogo

STARLINK-34282

ActivoComunicacionesVLEO
NORAD 64454·PAYLOAD·🇺🇸 United States

Lanzado Jun 18, 2025 desde Cape Canaveral Space Force Station

Loading…

Próximos Pases (próximas 24 horas)

TLE

ActualizadoSource: CelesTrak SupGP

Época: Sep 15, 2026, 02:42 UTC

1 64454C 25130S   26258.11298611  .00011072  00000+0  35597-3 0  2586
2 64454  53.1580 289.6866 0001349  94.2853 154.0864 15.31702634    11

Sigue STARLINK-34282 en tiempo real con AllMySat

Download on the App Store